User: anonymous   Login
Location: Unspecified
(0.0000°N, 0.0000°E)
Time: 08:51:55
(UTC+00:00)
Language:

GALILEO 10 (206) - Orbit

View from above orbital plane
View from above orbital plane
View from above satellite
View from above satellite

Ground track
Ground track

The orbit data is extracted from the following two-line orbital elements,

1 40890U 15045B   17177.62249292 -.00000068 +00000-0 +00000-0 0  9990
2 40890 057.0077 311.8707 0000837 100.8702 259.1254 01.70475133011160
Epoch (UTC): 26 June 2017 14:56:23
Eccentricity: 0.0000837
inclination: 57.0077°
perigee height: 23219 km
apogee height: 23224 km
right ascension of ascending node: 311.8707°
argument of perigee: 100.8702°
revolutions per day: 1.70475133
mean anomaly at epoch: 259.1254°
orbit number at epoch: 1116

The dashed part of the orbit path shows where the satellite is in the earth's shadow,  

DLR